Weather in Ulan Erge

Russia / Republic of Kalmykia     46°18′30″N   44°51′20″E
temp.,
°C
wind,
m/s
gust,
m/s
humid.,
%
clouds,
%
prec.,
mm/h
press.,
hPa
HPBL,
m
21 june, mon
mon2100:00+24e7143392 0.0 1015420
03:00+22e614425 0.0 1015349
06:00+23e615500 0.0 1015444
09:00+31ese1014240 0.0 10141280
12:00+35ese1113150 0.0 10142041
15:00+35ese1213140 0.0 10132060
18:00+32ese1013180 0.0 10131510
21:00+26e613230 0.0 1015353
22 june, tue
tue2200:00+24e4133099 0.0 1014275
03:00+23ene5153295 0.0 1013318
06:00+25e717321 0.0 1014510
09:00+32ese1115240 0.0 10131253
12:00+37ese1114130 0.0 10122726
15:00+38ese1213122 0.0 10122835
18:00+35ese1013153 0.0 10121820
21:00+28e5122245 0.0 1013245
23 june, wed
wed2300:00+26ene51338100 0.0 1013320
03:00+26ene5133865 0.0 1013273
06:00+27e7153919 0.0 1013758
09:00+33se11182192 0.0 10131421
12:00+36se13171622 0.0 10132290
15:00+37ese1114160 0.0 10132420
18:00+34ese911180 0.0 10131635
21:00+27ese511230 0.0 1015241
24 june, thu
thu2400:00+24e46286 0.0 101489
03:00+22ene47360 0.0 1014109
06:00+24ene49385 0.0 1014241
09:00+32e562539 0.0 1013834
12:00+37ese7101299 0.0 10122880
15:00+38se991198 0.0 10113188
18:00+36se891430 0.0 10111253
21:00+28se511216 0.0 1013216
25 june, fri
fri2500:00+25ese35291 0.0 101266
03:00+23se33350 0.0 101229
06:00+26e243598 0.0 1012123
09:00+32ene5623100 0.0 1012947
12:00+36ese4616100 0.0 10101852
15:00+38ese35155 0.0 10092679
18:00+38nne2415100 0.0 10071969
21:00+30e23265 0.0 100843